EW5071 Weather Reports


Display with metric or nautical units.
time (UTC)temp
F
wind
direction
speed
MPH
gust
MPH
rain 1hr
in
rain 24hr
in
rain mn
in
humidity
%
barometer
mb
20260509144505 39 260 0.0 0.0 0.00 0.00 0.00 92 1025.7
20260509143002 39 260 0.0 0.0 0.00 0.00 0.00 92 1025.7
20260509141602 39 260 0.0 0.0 0.00 0.00 0.00 92 1025.8
20260509140005 40 260 0.0 0.0 0.00 0.00 0.00 92 1025.6
20260509134613 40 260 0.0 0.0 0.00 0.00 0.00 92 1025.6
20260509133102 40 260 0.0 1.0 0.00 0.00 0.00 91 1025.6
20260509131502 40 260 0.0 0.0 0.00 0.00 0.00 91 1025.6
20260509124504 41 260 0.0 0.0 0.00 0.00 0.00 91 1025.7
20260509123132 42 260 0.0 0.0 0.00 0.00 0.00 91 1025.6
20260509121507 42 260 0.0 0.0 0.00 0.00 0.00 91 1025.6
20260509120116 42 260 0.0 0.0 0.00 0.00 0.00 90 1025.5
20260509114505 43 260 0.0 0.0 0.00 0.00 0.00 90 1025.4
20260509113109 43 260 0.0 0.0 0.00 0.00 0.00 90 1025.2
20260509111502 44 260 0.0 1.0 0.00 0.00 0.00 90 1025.2
20260509110109 44 260 0.0 0.0 0.00 0.00 0.00 90 1025.1
20260509104502 45 260 0.0 0.0 0.00 0.00 0.00 89 1024.9
20260509103106 45 260 0.0 0.0 0.00 0.00 0.00 89 1024.9
20260509101504 46 260 0.0 2.0 0.00 0.00 0.00 89 1024.8
20260509100104 46 260 0.0 2.0 0.00 0.00 0.00 88 1024.7
20260509094505 47 260 0.0 1.0 0.00 0.00 0.00 88 1024.5
20260509093108 48 260 0.0 2.0 0.00 0.00 0.00 88 1024.5
20260509091501 49 260 0.0 0.0 0.00 0.00 0.00 87 1024.3
20260509090105 49 260 1.0 3.0 0.00 0.00 0.00 86 1024.2
20260509084502 50 260 0.0 3.0 0.00 0.00 0.00 84 1024.0
20260509083104 51 260 0.0 2.0 0.00 0.00 0.00 82 1023.8
20260509081504 53 261 1.0 3.0 0.00 0.00 0.00 80 1023.5
20260509074602 57 297 0.0 1.0 0.00 0.00 0.00 73 1023.1
20260509073004 60 297 0.0 0.0 0.00 0.00 0.00 69 1022.9
20260509071602 62 297 1.0 2.0 0.00 0.00 0.00 67 1022.7
20260509064502 67 1 0.0 0.0 0.00 0.00 0.00 62 1022.5
20260509063102 67 1 0.0 2.0 0.00 0.00 0.00 60 1022.5
20260509061606 67 123 1.0 4.0 0.00 0.00 0.00 59 1022.3
20260509060002 67 148 2.0 4.0 0.00 0.00 0.00 59 1022.3
20260509054604 67 107 2.0 5.0 0.00 0.00 0.00 57 1022.1
20260509053002 67 74 2.0 5.0 0.00 0.00 0.00 57 1022.2
20260509051601 67 102 1.0 2.0 0.00 0.00 0.00 58 1022.2
20260509050003 66 164 2.0 5.0 0.00 0.00 0.00 59 1022.2
20260509044602 66 134 3.0 6.0 0.00 0.00 0.00 58 1022.3
20260509043001 67 342 3.0 6.0 0.00 0.00 0.00 58 1022.4
20260509041621 67 147 1.0 4.0 0.00 0.00 0.00 57 1022.3
20260509040002 67 61 1.0 4.0 0.00 0.00 0.00 57 1022.5
20260509034601 67 46 1.0 4.0 0.00 0.00 0.00 56 1022.5
20260509033001 67 29 1.0 4.0 0.00 0.00 0.00 57 1022.8
20260509031601 65 319 3.0 7.0 0.00 0.00 0.00 61 1022.8
20260509030002 66 331 1.0 5.0 0.00 0.00 0.00 59 1022.9
20260509024606 65 6 2.0 7.0 0.00 0.00 0.00 60 1023.1
20260509023001 65 48 2.0 4.0 0.00 0.00 0.00 58 1023.3
20260509021603 65 321 2.0 5.0 0.00 0.00 0.00 60 1023.5
20260509020007 64 343 5.0 8.0 0.00 0.00 0.00 62 1023.7
20260509014601 64 314 3.0 8.0 0.00 0.00 0.00 62 1024.0
20260509013012 63 336 7.0 10.0 0.00 0.00 0.00 64 1024.1
20260509011602 62 326 6.0 11.0 0.00 0.00 0.00 67 1024.2
20260509010002 60 347 7.0 12.0 0.00 0.00 0.00 70 1024.5
20260509004602 59 329 3.0 10.0 0.00 0.00 0.00 67 1024.6
20260509003002 60 238 4.0 9.0 0.00 0.00 0.00 67 1024.8
20260509001602 59 348 5.0 7.0 0.00 0.00 0.00 70 1024.9
20260509000002 57 348 2.0 10.0 0.00 0.00 0.00 72 1024.9
20260508234602 57 332 1.0 7.0 0.00 0.00 0.00 73 1024.9
20260508233003 56 323 0.0 7.0 0.00 0.00 0.00 73 1025.0
20260508231602 55 174 0.0 2.0 0.00 0.00 0.00 72 1024.9
20260508230105 55 143 0.0 7.0 0.00 0.00 0.00 73 1024.9
20260508224502 55 76 1.0 2.0 0.00 0.00 0.00 74 1024.9
20260508223102 54 76 0.0 2.0 0.00 0.00 0.00 74 1024.8
20260508221502 54 358 0.0 5.0 0.00 0.00 0.00 76 1024.5
20260508214506 53 286 0.0 1.0 0.00 0.00 0.00 76 1024.3
20260508213101 53 338 2.0 5.0 0.00 0.00 0.00 76 1024.0
20260508211507 53 3 1.0 5.0 0.00 0.00 0.00 77 1023.9
20260508204504 52 228 0.0 2.0 0.00 0.00 0.00 78 1023.6
20260508203102 52 228 1.0 5.0 0.00 0.00 0.00 80 1023.6
20260508201503 52 323 2.0 5.0 0.00 0.00 0.00 82 1023.3
20260508200002 52 167 1.0 3.0 0.00 0.00 0.00 83 1023.1
20260508194603 52 255 1.0 4.0 0.00 0.00 0.00 82 1023.0
20260508193151 52 255 0.0 1.0 0.00 0.00 0.00 82 1022.8
20260508191503 52 255 0.0 3.0 0.00 0.00 0.00 82 1022.7
20260508190104 52 29 0.0 0.0 0.00 0.00 0.00 84 1022.7
20260508184506 52 29 1.0 3.0 0.00 0.00 0.00 84 1022.6
20260508183127 51 29 1.0 3.0 0.00 0.00 0.00 84 1022.5
20260508181510 51 85 0.0 2.0 0.00 0.00 0.00 86 1022.4
20260508180013 51 301 1.0 3.0 0.00 0.00 0.00 86 1022.3
20260508174502 51 273 2.0 4.0 0.00 0.00 0.00 86 1022.3
20260508173105 51 219 0.0 3.0 0.00 0.00 0.00 85 1022.2
20260508171601 51 214 1.0 5.0 0.00 0.00 0.00 85 1022.2
20260508170001 51 312 0.0 1.0 0.00 0.00 0.00 85 1022.2
20260508164603 51 312 0.0 0.0 0.00 0.00 0.00 85 1022.0
20260508163002 51 312 0.0 6.0 0.00 0.00 0.00 85 1021.9
20260508161504 51 116 1.0 5.0 0.00 0.00 0.00 85 1021.9
20260508154502 52 338 1.0 4.0 0.00 0.00 0.00 84 1022.1
20260508153102 52 314 3.0 5.0 0.00 0.00 0.00 83 1022.1
20260508151503 52 325 3.0 7.0 0.00 0.00 0.00 82 1022.2